Year,Month,Day,Hour,Minute,Value (Times are PST for temperature in C)
2015,02,16,00,00,2.20
2015,02,16,00,01,2.20
2015,02,16,00,02,2.20
2015,02,16,00,03,2.20
2015,02,16,00,04,2.30
2015,02,16,00,05,2.30
2015,02,16,00,06,2.30
2015,02,16,00,07,2.40
2015,02,16,00,08,2.40
2015,02,16,00,09,2.40
2015,02,16,00,10,2.40
2015,02,16,00,11,2.40
2015,02,16,00,12,2.40
2015,02,16,00,13,2.40
2015,02,16,00,14,2.50
2015,02,16,00,15,2.50
2015,02,16,00,16,2.50
2015,02,16,00,17,2.50
2015,02,16,00,18,2.60
2015,02,16,00,19,2.60
2015,02,16,00,20,2.60
2015,02,16,00,21,2.60
2015,02,16,00,22,2.60
2015,02,16,00,23,2.60
2015,02,16,00,24,2.60
2015,02,16,00,25,2.70
2015,02,16,00,26,2.70
2015,02,16,00,27,2.70
2015,02,16,00,28,2.80
2015,02,16,00,29,2.80
2015,02,16,00,30,2.80
2015,02,16,00,31,2.80
2015,02,16,00,32,2.80
2015,02,16,00,33,2.70
2015,02,16,00,34,2.70
2015,02,16,00,35,2.70
2015,02,16,00,36,2.70
2015,02,16,00,37,2.70
2015,02,16,00,38,2.70
2015,02,16,00,39,2.70
2015,02,16,00,40,2.70
2015,02,16,00,41,2.70
2015,02,16,00,42,2.70
2015,02,16,00,43,2.80
2015,02,16,00,44,2.80
2015,02,16,00,45,2.80
2015,02,16,00,46,2.90
2015,02,16,00,47,3.00
2015,02,16,00,48,3.10
2015,02,16,00,49,3.20
2015,02,16,00,50,3.20
2015,02,16,00,51,3.30
2015,02,16,00,52,3.30
2015,02,16,00,53,3.30
2015,02,16,00,54,3.40
2015,02,16,00,55,3.40
2015,02,16,00,56,3.40
2015,02,16,00,57,3.30
2015,02,16,00,58,3.30
2015,02,16,00,59,3.40
2015,02,16,01,00,3.40
2015,02,16,01,01,3.40
2015,02,16,01,02,3.40
2015,02,16,01,03,3.40
2015,02,16,01,04,3.40
2015,02,16,01,05,3.40
2015,02,16,01,06,3.40
2015,02,16,01,07,3.40
2015,02,16,01,08,3.50
2015,02,16,01,09,3.50
2015,02,16,01,10,3.50
2015,02,16,01,11,3.60
2015,02,16,01,12,3.60
2015,02,16,01,13,3.60
2015,02,16,01,14,3.60
2015,02,16,01,15,3.60
2015,02,16,01,16,3.50
2015,02,16,01,17,3.60
2015,02,16,01,18,3.60
2015,02,16,01,19,3.60
2015,02,16,01,20,3.60
2015,02,16,01,21,3.60
2015,02,16,01,22,3.60
2015,02,16,01,23,3.70
2015,02,16,01,24,3.70
2015,02,16,01,25,3.70
2015,02,16,01,26,3.70
2015,02,16,01,27,3.70
2015,02,16,01,28,3.70
2015,02,16,01,29,3.70
2015,02,16,01,30,3.70
2015,02,16,01,31,3.70
2015,02,16,01,32,3.80
2015,02,16,01,33,3.80
2015,02,16,01,34,3.90
2015,02,16,01,35,3.90
2015,02,16,01,36,3.90
2015,02,16,01,37,3.90
2015,02,16,01,38,4.00
2015,02,16,01,39,4.00
2015,02,16,01,40,4.00
2015,02,16,01,41,4.10
2015,02,16,01,42,4.10
2015,02,16,01,43,4.10
2015,02,16,01,44,4.10
2015,02,16,01,45,4.20
2015,02,16,01,46,4.20
2015,02,16,01,47,4.30
2015,02,16,01,48,4.40
2015,02,16,01,49,4.40
2015,02,16,01,50,4.50
2015,02,16,01,51,4.50
2015,02,16,01,52,4.60
2015,02,16,01,53,4.60
2015,02,16,01,54,4.70
2015,02,16,01,55,4.70
2015,02,16,01,56,4.80
2015,02,16,01,57,4.90
2015,02,16,01,58,4.90
2015,02,16,01,59,4.90
2015,02,16,02,00,4.90
2015,02,16,02,01,4.90
2015,02,16,02,02,4.90
2015,02,16,02,03,4.80
2015,02,16,02,04,4.80
2015,02,16,02,05,4.80
2015,02,16,02,06,4.70
2015,02,16,02,07,4.70
2015,02,16,02,08,4.70
2015,02,16,02,09,4.70
2015,02,16,02,10,4.70
2015,02,16,02,11,4.70
2015,02,16,02,12,4.70
2015,02,16,02,13,4.70
2015,02,16,02,14,4.70
2015,02,16,02,15,4.60
2015,02,16,02,16,4.60
2015,02,16,02,17,4.60
2015,02,16,02,18,4.60
2015,02,16,02,19,4.50
2015,02,16,02,20,4.50
2015,02,16,02,21,4.50
2015,02,16,02,22,4.40
2015,02,16,02,23,4.40
2015,02,16,02,24,4.40
2015,02,16,02,25,4.40
2015,02,16,02,26,4.40
2015,02,16,02,27,4.40
2015,02,16,02,28,4.50
2015,02,16,02,29,4.50
2015,02,16,02,30,4.50
2015,02,16,02,31,4.50
2015,02,16,02,32,4.50
2015,02,16,02,33,4.40
2015,02,16,02,34,4.40
2015,02,16,02,35,4.40
2015,02,16,02,36,4.30
2015,02,16,02,37,4.30
2015,02,16,02,38,4.30
2015,02,16,02,39,4.30
2015,02,16,02,40,4.40
2015,02,16,02,41,4.30
2015,02,16,02,42,4.30
2015,02,16,02,43,4.30
2015,02,16,02,44,4.30
2015,02,16,02,45,4.30
2015,02,16,02,46,4.30
2015,02,16,02,47,4.30
2015,02,16,02,48,4.30
2015,02,16,02,49,4.20
2015,02,16,02,50,4.20
2015,02,16,02,51,4.20
2015,02,16,02,52,4.10
2015,02,16,02,53,4.10
2015,02,16,02,54,4.00
2015,02,16,02,55,4.00
2015,02,16,02,56,4.00
2015,02,16,02,57,4.00
2015,02,16,02,58,4.00
2015,02,16,02,59,4.10
2015,02,16,03,00,4.10
2015,02,16,03,01,4.20
2015,02,16,03,02,4.20
2015,02,16,03,03,4.20
2015,02,16,03,04,4.20
2015,02,16,03,05,4.20
2015,02,16,03,06,4.20
2015,02,16,03,07,4.30
2015,02,16,03,08,4.40
2015,02,16,03,09,4.50
2015,02,16,03,10,4.60
2015,02,16,03,11,4.70
2015,02,16,03,12,4.80
2015,02,16,03,13,5.00
2015,02,16,03,14,5.10
2015,02,16,03,15,5.10
2015,02,16,03,16,5.20
2015,02,16,03,17,5.20
2015,02,16,03,18,5.30
2015,02,16,03,19,5.40
2015,02,16,03,20,5.40
2015,02,16,03,21,5.40
2015,02,16,03,22,5.40
2015,02,16,03,23,5.50
2015,02,16,03,24,5.60
2015,02,16,03,25,5.70
2015,02,16,03,26,5.80
2015,02,16,03,27,5.90
2015,02,16,03,28,6.00
2015,02,16,03,29,6.10
2015,02,16,03,30,6.10
2015,02,16,03,31,6.10
2015,02,16,03,32,6.10
2015,02,16,03,33,6.10
2015,02,16,03,34,6.10
2015,02,16,03,35,6.00
2015,02,16,03,36,6.00
2015,02,16,03,37,5.90
2015,02,16,03,38,5.90
2015,02,16,03,39,5.90
2015,02,16,03,40,5.90
2015,02,16,03,41,5.90
2015,02,16,03,42,5.80
2015,02,16,03,43,5.70
2015,02,16,03,44,5.60
2015,02,16,03,45,5.50
2015,02,16,03,46,5.50
2015,02,16,03,47,5.50
2015,02,16,03,48,5.50
2015,02,16,03,49,5.40
2015,02,16,03,50,5.40
2015,02,16,03,51,5.40
2015,02,16,03,52,5.30
2015,02,16,03,53,5.30
2015,02,16,03,54,5.30
2015,02,16,03,55,5.30
2015,02,16,03,56,5.30
2015,02,16,03,57,5.30
2015,02,16,03,58,5.30
2015,02,16,03,59,5.30
2015,02,16,04,00,5.30
2015,02,16,04,01,5.40
2015,02,16,04,02,5.50
2015,02,16,04,03,5.60
2015,02,16,04,04,5.60
2015,02,16,04,05,5.60
2015,02,16,04,06,5.60
2015,02,16,04,07,5.70
2015,02,16,04,08,5.70
2015,02,16,04,09,5.70
2015,02,16,04,10,5.70
2015,02,16,04,11,5.70
2015,02,16,04,12,5.70
2015,02,16,04,13,5.60
2015,02,16,04,14,5.60
2015,02,16,04,15,5.60
2015,02,16,04,16,5.70
2015,02,16,04,17,5.90
2015,02,16,04,18,6.00
2015,02,16,04,19,6.10
2015,02,16,04,20,6.20
2015,02,16,04,21,6.20
2015,02,16,04,22,6.20
2015,02,16,04,23,6.20
2015,02,16,04,24,6.10
2015,02,16,04,25,6.10
2015,02,16,04,26,6.10
2015,02,16,04,27,6.10
2015,02,16,04,28,6.10
2015,02,16,04,29,6.10
2015,02,16,04,30,6.00
2015,02,16,04,31,5.90
2015,02,16,04,32,5.80
2015,02,16,04,33,5.70
2015,02,16,04,34,5.70
2015,02,16,04,35,5.70
2015,02,16,04,36,5.70
2015,02,16,04,37,5.70
2015,02,16,04,38,5.70
2015,02,16,04,39,5.70
2015,02,16,04,40,5.70
2015,02,16,04,41,5.70
2015,02,16,04,42,5.60
2015,02,16,04,43,5.60
2015,02,16,04,44,5.50
2015,02,16,04,45,5.40
2015,02,16,04,46,5.40
2015,02,16,04,47,5.30
2015,02,16,04,48,5.30
2015,02,16,04,49,5.20
2015,02,16,04,50,5.20
2015,02,16,04,51,5.10
2015,02,16,04,52,5.10
2015,02,16,04,53,5.00
2015,02,16,04,54,5.00
2015,02,16,04,55,4.90
2015,02,16,04,56,4.90
2015,02,16,04,57,4.80
2015,02,16,04,58,4.80
2015,02,16,04,59,4.80
2015,02,16,05,00,4.80
2015,02,16,05,01,4.80
2015,02,16,05,02,4.80
2015,02,16,05,03,4.70
2015,02,16,05,04,4.70
2015,02,16,05,05,4.70
2015,02,16,05,06,4.70
2015,02,16,05,07,4.70
2015,02,16,05,08,4.60
2015,02,16,05,09,4.60
2015,02,16,05,10,4.60
2015,02,16,05,11,4.60
2015,02,16,05,12,4.60
2015,02,16,05,13,4.60
2015,02,16,05,14,4.60
2015,02,16,05,15,4.60
2015,02,16,05,16,4.60
2015,02,16,05,17,4.50
2015,02,16,05,18,4.50
2015,02,16,05,19,4.50
2015,02,16,05,20,4.50
2015,02,16,05,21,4.40
2015,02,16,05,22,4.40
2015,02,16,05,23,4.40
2015,02,16,05,24,4.40
2015,02,16,05,25,4.40
2015,02,16,05,26,4.40
2015,02,16,05,27,4.40
2015,02,16,05,28,4.50
2015,02,16,05,29,4.60
2015,02,16,05,30,4.60
2015,02,16,05,31,4.70
2015,02,16,05,32,4.80
2015,02,16,05,33,4.80
2015,02,16,05,34,4.80
2015,02,16,05,35,4.80
2015,02,16,05,36,4.80
2015,02,16,05,37,4.80
2015,02,16,05,38,4.90
2015,02,16,05,39,5.00
2015,02,16,05,40,5.00
2015,02,16,05,41,5.10
2015,02,16,05,42,5.20
2015,02,16,05,43,5.20
2015,02,16,05,44,5.30
2015,02,16,05,45,5.30
2015,02,16,05,46,5.30
2015,02,16,05,47,5.30
2015,02,16,05,48,5.40
2015,02,16,05,49,5.40
2015,02,16,05,50,5.50
2015,02,16,05,51,5.50
2015,02,16,05,52,5.60
2015,02,16,05,53,5.60
2015,02,16,05,54,5.60
2015,02,16,05,55,5.60
2015,02,16,05,56,5.70
2015,02,16,05,57,5.70
2015,02,16,05,58,5.60
2015,02,16,05,59,5.60
2015,02,16,06,00,5.60
2015,02,16,06,01,5.60
2015,02,16,06,02,5.60
2015,02,16,06,03,5.60
2015,02,16,06,04,5.60
2015,02,16,06,05,5.60
2015,02,16,06,06,5.60
2015,02,16,06,07,5.60
2015,02,16,06,08,5.50
2015,02,16,06,09,5.50
2015,02,16,06,10,5.50
2015,02,16,06,11,5.40
2015,02,16,06,12,5.40
2015,02,16,06,13,5.30
2015,02,16,06,14,5.30
2015,02,16,06,15,5.20
2015,02,16,06,16,5.20
2015,02,16,06,17,5.20
2015,02,16,06,18,5.10
2015,02,16,06,19,5.10
2015,02,16,06,20,5.10
2015,02,16,06,21,5.10
2015,02,16,06,22,5.10
2015,02,16,06,23,5.20
2015,02,16,06,24,5.30
2015,02,16,06,25,5.30
2015,02,16,06,26,5.40
2015,02,16,06,27,5.50
2015,02,16,06,28,5.50
2015,02,16,06,29,5.60
2015,02,16,06,30,5.60
2015,02,16,06,31,5.60
2015,02,16,06,32,5.60
2015,02,16,06,33,5.60
2015,02,16,06,34,5.50
2015,02,16,06,35,5.50
2015,02,16,06,36,5.40
2015,02,16,06,37,5.40
2015,02,16,06,38,5.40
2015,02,16,06,39,5.40
2015,02,16,06,40,5.40
2015,02,16,06,41,5.30
2015,02,16,06,42,5.30
2015,02,16,06,43,5.30
2015,02,16,06,44,5.30
2015,02,16,06,45,5.20
2015,02,16,06,46,5.20
2015,02,16,06,47,5.20
2015,02,16,06,48,5.20
2015,02,16,06,49,5.20
2015,02,16,06,50,5.10
2015,02,16,06,51,5.00
2015,02,16,06,52,4.90
2015,02,16,06,53,4.80
2015,02,16,06,54,4.70
2015,02,16,06,55,4.70
2015,02,16,06,56,4.60
2015,02,16,06,57,4.50
2015,02,16,06,58,4.40
2015,02,16,06,59,4.40
2015,02,16,07,00,4.40
2015,02,16,07,01,4.50
2015,02,16,07,02,4.50
2015,02,16,07,03,4.60
2015,02,16,07,04,4.60
2015,02,16,07,05,4.60
2015,02,16,07,06,4.50
2015,02,16,07,07,4.60
2015,02,16,07,08,4.60
2015,02,16,07,09,4.60
2015,02,16,07,10,4.60
2015,02,16,07,11,4.70
2015,02,16,07,12,4.80
2015,02,16,07,13,4.80
2015,02,16,07,14,4.80
2015,02,16,07,15,4.80
2015,02,16,07,16,4.80
2015,02,16,07,17,4.80
2015,02,16,07,18,4.80
2015,02,16,07,19,4.80
2015,02,16,07,20,4.80
2015,02,16,07,21,4.80
2015,02,16,07,22,4.80
2015,02,16,07,23,4.70
2015,02,16,07,24,4.70
2015,02,16,07,25,4.60
2015,02,16,07,26,4.60
2015,02,16,07,27,4.50
2015,02,16,07,28,4.40
2015,02,16,07,29,4.30
2015,02,16,07,30,4.30
2015,02,16,07,31,4.20
2015,02,16,07,32,4.10
2015,02,16,07,33,4.10
2015,02,16,07,34,4.10
2015,02,16,07,35,4.10
2015,02,16,07,36,4.10
2015,02,16,07,37,4.00
2015,02,16,07,38,4.00
2015,02,16,07,39,4.00
2015,02,16,07,40,4.00
2015,02,16,07,41,4.00
2015,02,16,07,42,4.10
2015,02,16,07,43,4.10
2015,02,16,07,44,4.10
2015,02,16,07,45,4.10
2015,02,16,07,46,4.10
2015,02,16,07,47,4.00
2015,02,16,07,48,4.00
2015,02,16,07,49,3.90
2015,02,16,07,50,3.90
2015,02,16,07,51,3.90
2015,02,16,07,52,3.90
2015,02,16,07,53,4.00
2015,02,16,07,54,4.00
2015,02,16,07,55,4.00
2015,02,16,07,56,4.10
2015,02,16,07,57,4.10
2015,02,16,07,58,4.20
2015,02,16,07,59,4.20
2015,02,16,08,00,4.20
2015,02,16,08,01,4.20
2015,02,16,08,02,4.20
2015,02,16,08,03,4.20
2015,02,16,08,04,4.10
2015,02,16,08,05,4.10
2015,02,16,08,06,4.10
2015,02,16,08,07,4.10
2015,02,16,08,08,4.10
2015,02,16,08,09,4.10
2015,02,16,08,10,4.10
2015,02,16,08,11,4.10
2015,02,16,08,12,4.10
2015,02,16,08,13,4.20
2015,02,16,08,14,4.30
2015,02,16,08,15,4.50
2015,02,16,08,16,4.60
2015,02,16,08,17,4.70
2015,02,16,08,18,4.70
2015,02,16,08,19,4.70
2015,02,16,08,20,4.70
2015,02,16,08,21,4.70
2015,02,16,08,22,4.70
2015,02,16,08,23,4.80
2015,02,16,08,24,4.90
2015,02,16,08,25,5.00
2015,02,16,08,26,5.10
2015,02,16,08,27,5.20
2015,02,16,08,28,5.30
2015,02,16,08,29,5.50
2015,02,16,08,30,5.60
2015,02,16,08,31,5.70
2015,02,16,08,32,5.80
2015,02,16,08,33,5.90
2015,02,16,08,34,6.10
2015,02,16,08,35,6.20
2015,02,16,08,36,6.30
2015,02,16,08,37,6.40
2015,02,16,08,38,6.50
2015,02,16,08,39,6.60
2015,02,16,08,40,6.70
2015,02,16,08,41,6.80
2015,02,16,08,42,6.90
2015,02,16,08,43,7.10
2015,02,16,08,44,7.20
2015,02,16,08,45,7.20
2015,02,16,08,46,7.20
2015,02,16,08,47,7.30
2015,02,16,08,48,7.40
2015,02,16,08,49,7.50
2015,02,16,08,50,7.50
2015,02,16,08,51,7.60
2015,02,16,08,52,7.60
2015,02,16,08,53,7.70
2015,02,16,08,54,7.80
2015,02,16,08,55,7.90
2015,02,16,08,56,8.00
2015,02,16,08,57,8.10
2015,02,16,08,58,8.20
2015,02,16,08,59,8.20
2015,02,16,09,00,8.30
2015,02,16,09,01,8.40
2015,02,16,09,02,8.40
2015,02,16,09,03,8.40
2015,02,16,09,04,8.40
2015,02,16,09,05,8.50
2015,02,16,09,06,8.50
2015,02,16,09,07,8.50
2015,02,16,09,08,8.50
2015,02,16,09,09,8.50
2015,02,16,09,10,8.50
2015,02,16,09,11,8.50
2015,02,16,09,12,8.50
2015,02,16,09,13,8.50
2015,02,16,09,14,8.50
2015,02,16,09,15,8.60
2015,02,16,09,16,8.60
2015,02,16,09,17,8.60
2015,02,16,09,18,8.60
2015,02,16,09,19,8.60
2015,02,16,09,20,8.60
2015,02,16,09,21,8.60
2015,02,16,09,22,8.60
2015,02,16,09,23,8.60
2015,02,16,09,24,8.60
2015,02,16,09,25,8.60
2015,02,16,09,26,8.60
2015,02,16,09,27,8.60
2015,02,16,09,28,8.60
2015,02,16,09,29,8.60
2015,02,16,09,30,8.60
2015,02,16,09,31,8.60
2015,02,16,09,32,8.60
2015,02,16,09,33,8.60
2015,02,16,09,34,8.60
2015,02,16,09,35,8.60
2015,02,16,09,36,8.60
2015,02,16,09,37,8.60
2015,02,16,09,38,8.60
2015,02,16,09,39,8.60
2015,02,16,09,40,8.60
2015,02,16,09,41,8.60
2015,02,16,09,42,8.60
2015,02,16,09,43,8.60
2015,02,16,09,44,8.60
2015,02,16,09,45,8.70
2015,02,16,09,46,8.70
2015,02,16,09,47,8.70
2015,02,16,09,48,8.70
2015,02,16,09,49,8.70
2015,02,16,09,50,8.70
2015,02,16,09,51,8.70
2015,02,16,09,52,8.70
2015,02,16,09,53,8.70
2015,02,16,09,54,8.80
2015,02,16,09,55,8.80
2015,02,16,09,56,8.80
2015,02,16,09,57,8.80
2015,02,16,09,58,8.80
2015,02,16,09,59,8.80
2015,02,16,10,00,8.80
2015,02,16,10,01,8.80
2015,02,16,10,02,8.80
2015,02,16,10,03,8.80
2015,02,16,10,04,8.80
2015,02,16,10,05,8.80
2015,02,16,10,06,8.80
2015,02,16,10,07,8.80
2015,02,16,10,08,8.90
2015,02,16,10,09,8.90
2015,02,16,10,10,9.00
2015,02,16,10,11,9.00
2015,02,16,10,12,9.10
2015,02,16,10,13,9.10
2015,02,16,10,14,9.10
2015,02,16,10,15,9.20
2015,02,16,10,16,9.20
2015,02,16,10,17,9.20
2015,02,16,10,18,9.30
2015,02,16,10,19,9.30
2015,02,16,10,20,9.30
2015,02,16,10,21,9.30
2015,02,16,10,22,9.30
2015,02,16,10,23,9.40
2015,02,16,10,24,9.40
2015,02,16,10,25,9.40
2015,02,16,10,26,9.40
2015,02,16,10,27,9.40
2015,02,16,10,28,9.40
2015,02,16,10,29,9.50
2015,02,16,10,30,9.40
2015,02,16,10,31,9.40
2015,02,16,10,32,9.50
2015,02,16,10,33,9.50
2015,02,16,10,34,9.50
2015,02,16,10,35,9.60
2015,02,16,10,36,9.60
2015,02,16,10,37,9.60
2015,02,16,10,38,9.60
2015,02,16,10,39,9.70
2015,02,16,10,40,9.70
2015,02,16,10,41,9.70
2015,02,16,10,42,9.70
2015,02,16,10,43,9.70
2015,02,16,10,44,9.70
2015,02,16,10,45,9.70
2015,02,16,10,46,9.70
2015,02,16,10,47,9.70
2015,02,16,10,48,9.70
2015,02,16,10,49,9.70
2015,02,16,10,50,9.70
2015,02,16,10,51,9.70
2015,02,16,10,52,9.70
2015,02,16,10,53,9.70
2015,02,16,10,54,9.80
2015,02,16,10,55,9.80
2015,02,16,10,56,9.80
2015,02,16,10,57,9.80
2015,02,16,10,58,9.80
2015,02,16,10,59,9.80
2015,02,16,11,00,9.80
2015,02,16,11,01,9.80
2015,02,16,11,02,9.80
2015,02,16,11,03,9.80
2015,02,16,11,04,9.80
2015,02,16,11,05,9.80
2015,02,16,11,06,9.70
2015,02,16,11,07,9.70
2015,02,16,11,08,9.70
2015,02,16,11,09,9.70
2015,02,16,11,10,9.70
2015,02,16,11,11,9.70
2015,02,16,11,12,9.70
2015,02,16,11,13,9.70
2015,02,16,11,14,9.70
2015,02,16,11,15,9.70
2015,02,16,11,16,9.70
2015,02,16,11,17,9.80
2015,02,16,11,18,9.80
2015,02,16,11,19,9.80
2015,02,16,11,20,9.80
2015,02,16,11,21,9.90
2015,02,16,11,22,9.90
2015,02,16,11,23,9.90
2015,02,16,11,24,9.90
2015,02,16,11,25,9.90
2015,02,16,11,26,10.00
2015,02,16,11,27,10.00
2015,02,16,11,28,10.00
2015,02,16,11,29,10.00
2015,02,16,11,30,10.00
2015,02,16,11,31,10.00
2015,02,16,11,32,10.00
2015,02,16,11,33,10.00
2015,02,16,11,34,10.00
2015,02,16,11,35,10.00
2015,02,16,11,36,10.00
2015,02,16,11,37,10.00
2015,02,16,11,38,10.00
2015,02,16,11,39,10.00
2015,02,16,11,40,10.00
2015,02,16,11,41,10.10
2015,02,16,11,42,10.10
2015,02,16,11,43,10.10
2015,02,16,11,44,10.10
2015,02,16,11,45,10.00
2015,02,16,11,46,10.00
2015,02,16,11,47,10.00
2015,02,16,11,48,10.00
2015,02,16,11,49,10.00
2015,02,16,11,50,9.90
2015,02,16,11,51,9.90
2015,02,16,11,52,9.90
2015,02,16,11,53,9.90
2015,02,16,11,54,9.80
2015,02,16,11,55,9.80
2015,02,16,11,56,9.80
2015,02,16,11,57,9.80
2015,02,16,11,58,9.80
2015,02,16,11,59,9.80
2015,02,16,12,00,9.80
2015,02,16,12,01,9.80
2015,02,16,12,02,9.80
2015,02,16,12,03,9.80
2015,02,16,12,04,9.80
2015,02,16,12,05,9.80
2015,02,16,12,06,9.80
2015,02,16,12,07,9.80
2015,02,16,12,08,9.80
2015,02,16,12,09,9.80
2015,02,16,12,10,9.80
2015,02,16,12,11,9.80
2015,02,16,12,12,9.80
2015,02,16,12,13,9.80
2015,02,16,12,14,9.80
2015,02,16,12,15,9.80
2015,02,16,12,16,9.80
2015,02,16,12,17,9.80
2015,02,16,12,18,9.80
2015,02,16,12,19,9.80
2015,02,16,12,20,9.80
2015,02,16,12,21,9.80
2015,02,16,12,22,9.80
2015,02,16,12,23,9.80
2015,02,16,12,24,9.90
2015,02,16,12,25,9.90
2015,02,16,12,26,10.00
2015,02,16,12,27,10.00
2015,02,16,12,28,10.00
2015,02,16,12,29,10.10
2015,02,16,12,30,10.10
2015,02,16,12,31,10.10
2015,02,16,12,32,10.10
2015,02,16,12,33,10.20
2015,02,16,12,34,10.20
2015,02,16,12,35,10.20
2015,02,16,12,36,10.30
2015,02,16,12,37,10.30
2015,02,16,12,38,10.30
2015,02,16,12,39,10.30
2015,02,16,12,40,10.30
2015,02,16,12,41,10.40
2015,02,16,12,42,10.40
2015,02,16,12,43,10.50
2015,02,16,12,44,10.50
2015,02,16,12,45,10.50
2015,02,16,12,46,10.60
2015,02,16,12,47,10.60
2015,02,16,12,48,10.60
2015,02,16,12,49,10.60
2015,02,16,12,50,10.60
2015,02,16,12,51,10.60
2015,02,16,12,52,10.60
2015,02,16,12,53,10.60
2015,02,16,12,54,10.60
2015,02,16,12,55,10.60
2015,02,16,12,56,10.60
2015,02,16,12,57,10.60
2015,02,16,12,58,10.60
2015,02,16,12,59,10.60
2015,02,16,13,00,10.60
2015,02,16,13,01,10.60
2015,02,16,13,02,10.60
2015,02,16,13,03,10.70
2015,02,16,13,04,10.60
2015,02,16,13,05,10.60
2015,02,16,13,06,10.60
2015,02,16,13,07,10.70
2015,02,16,13,08,10.70
2015,02,16,13,09,10.70
2015,02,16,13,10,10.70
2015,02,16,13,11,10.70
2015,02,16,13,12,10.70
2015,02,16,13,13,10.70
2015,02,16,13,14,10.70
2015,02,16,13,15,10.70
2015,02,16,13,16,10.70
2015,02,16,13,17,10.70
2015,02,16,13,18,10.70
2015,02,16,13,19,10.70
2015,02,16,13,20,10.70
2015,02,16,13,21,10.80
2015,02,16,13,22,10.80
2015,02,16,13,23,10.80
2015,02,16,13,24,10.90
2015,02,16,13,25,10.90
2015,02,16,13,26,11.00
2015,02,16,13,27,11.10
2015,02,16,13,28,11.10
2015,02,16,13,29,11.10
2015,02,16,13,30,11.10
2015,02,16,13,31,11.20
2015,02,16,13,32,11.10
2015,02,16,13,33,11.10
2015,02,16,13,34,11.10
2015,02,16,13,35,11.10
2015,02,16,13,36,11.00
2015,02,16,13,37,11.00
2015,02,16,13,38,11.00
2015,02,16,13,39,11.00
2015,02,16,13,40,11.10
2015,02,16,13,41,11.10
2015,02,16,13,42,11.10
2015,02,16,13,43,11.20
2015,02,16,13,44,11.20
2015,02,16,13,45,11.20
2015,02,16,13,46,11.30
2015,02,16,13,47,11.30
2015,02,16,13,48,11.40
2015,02,16,13,49,11.40
2015,02,16,13,50,11.40
2015,02,16,13,51,11.40
2015,02,16,13,52,11.40
2015,02,16,13,53,11.40
2015,02,16,13,54,11.40
2015,02,16,13,55,11.50
2015,02,16,13,56,11.50
2015,02,16,13,57,11.50
2015,02,16,13,58,11.50
2015,02,16,13,59,11.50
2015,02,16,14,00,11.50
2015,02,16,14,01,11.40
2015,02,16,14,02,11.40
2015,02,16,14,03,11.40
2015,02,16,14,04,11.30
2015,02,16,14,05,11.30
2015,02,16,14,06,11.30
2015,02,16,14,07,11.30
2015,02,16,14,08,11.30
2015,02,16,14,09,11.30
2015,02,16,14,10,11.30
2015,02,16,14,11,11.30
2015,02,16,14,12,11.30
2015,02,16,14,13,11.30
2015,02,16,14,14,11.30
2015,02,16,14,15,11.40
2015,02,16,14,16,11.40
2015,02,16,14,17,11.40
2015,02,16,14,18,11.40
2015,02,16,14,19,11.40
2015,02,16,14,20,11.30
2015,02,16,14,21,11.30
2015,02,16,14,22,11.30
2015,02,16,14,23,11.20
2015,02,16,14,24,11.20
2015,02,16,14,25,11.20
2015,02,16,14,26,11.20
2015,02,16,14,27,11.20
2015,02,16,14,28,11.20
2015,02,16,14,29,11.20
2015,02,16,14,30,11.20
2015,02,16,14,31,11.20
2015,02,16,14,32,11.20
2015,02,16,14,33,11.10
2015,02,16,14,34,11.10
2015,02,16,14,35,11.10
2015,02,16,14,36,11.10
2015,02,16,14,37,11.10
2015,02,16,14,38,11.10
2015,02,16,14,39,11.00
2015,02,16,14,40,11.00
2015,02,16,14,41,10.90
2015,02,16,14,42,10.90
2015,02,16,14,43,10.90
2015,02,16,14,44,10.90
2015,02,16,14,45,10.90
2015,02,16,14,46,10.90
2015,02,16,14,47,10.80
2015,02,16,14,48,10.80
2015,02,16,14,49,10.80
2015,02,16,14,50,10.80
2015,02,16,14,51,10.80
2015,02,16,14,52,10.70
2015,02,16,14,53,10.70
2015,02,16,14,54,10.70
2015,02,16,14,55,10.70
2015,02,16,14,56,10.70
2015,02,16,14,57,10.70
2015,02,16,14,58,10.70
2015,02,16,14,59,10.70
2015,02,16,15,00,10.70
2015,02,16,15,01,10.70
2015,02,16,15,02,10.70
2015,02,16,15,03,10.70
2015,02,16,15,04,10.70
2015,02,16,15,05,10.70
2015,02,16,15,06,10.70
2015,02,16,15,07,10.70
2015,02,16,15,08,10.70
2015,02,16,15,09,10.60
2015,02,16,15,10,10.60
2015,02,16,15,11,10.60
2015,02,16,15,12,10.60
2015,02,16,15,13,10.60
2015,02,16,15,14,10.60
2015,02,16,15,15,10.60
2015,02,16,15,16,10.60
2015,02,16,15,17,10.60
2015,02,16,15,18,10.60
2015,02,16,15,19,10.60
2015,02,16,15,20,10.60
2015,02,16,15,21,10.50
2015,02,16,15,22,10.50
2015,02,16,15,23,10.50
2015,02,16,15,24,10.40
2015,02,16,15,25,10.40
2015,02,16,15,26,10.40
2015,02,16,15,27,10.40
2015,02,16,15,28,10.40
2015,02,16,15,29,10.40
2015,02,16,15,30,10.40
2015,02,16,15,31,10.40
2015,02,16,15,32,10.40
2015,02,16,15,33,10.30
2015,02,16,15,34,10.30
2015,02,16,15,35,10.30
2015,02,16,15,36,10.30
2015,02,16,15,37,10.30
2015,02,16,15,38,10.30
2015,02,16,15,39,10.30
2015,02,16,15,40,10.20
2015,02,16,15,41,10.20
2015,02,16,15,42,10.20
2015,02,16,15,43,10.20
2015,02,16,15,44,10.20
2015,02,16,15,45,10.20
2015,02,16,15,46,10.20
2015,02,16,15,47,10.20
2015,02,16,15,48,10.10
2015,02,16,15,49,10.10
2015,02,16,15,50,10.10
2015,02,16,15,51,10.10
2015,02,16,15,52,10.10
2015,02,16,15,53,10.10
2015,02,16,15,54,10.10
2015,02,16,15,55,10.00
2015,02,16,15,56,10.00
2015,02,16,15,57,10.00
2015,02,16,15,58,10.00
2015,02,16,15,59,10.00
2015,02,16,16,00,10.00
2015,02,16,16,01,9.90
2015,02,16,16,02,9.90
2015,02,16,16,03,9.90
2015,02,16,16,04,9.90
2015,02,16,16,05,9.90
2015,02,16,16,06,9.90
2015,02,16,16,07,9.80
2015,02,16,16,08,9.80
2015,02,16,16,09,9.80
2015,02,16,16,10,9.80
2015,02,16,16,11,9.80
2015,02,16,16,12,9.80
2015,02,16,16,13,9.80
2015,02,16,16,14,9.80
2015,02,16,16,15,9.80
2015,02,16,16,16,9.70
2015,02,16,16,17,9.70
2015,02,16,16,18,9.70
2015,02,16,16,19,9.70
2015,02,16,16,20,9.70
2015,02,16,16,21,9.70
2015,02,16,16,22,9.70
2015,02,16,16,23,9.70
2015,02,16,16,24,9.60
2015,02,16,16,25,9.60
2015,02,16,16,26,9.60
2015,02,16,16,27,9.70
2015,02,16,16,28,9.60
2015,02,16,16,29,9.60
2015,02,16,16,30,9.60
2015,02,16,16,31,9.60
2015,02,16,16,32,9.60
2015,02,16,16,33,9.50
2015,02,16,16,34,9.50
2015,02,16,16,35,9.50
2015,02,16,16,36,9.40
2015,02,16,16,37,9.40
2015,02,16,16,38,9.40
2015,02,16,16,39,9.40
2015,02,16,16,40,9.40
2015,02,16,16,41,9.40
2015,02,16,16,42,9.30
2015,02,16,16,43,9.30
2015,02,16,16,44,9.40
2015,02,16,16,45,9.40
2015,02,16,16,46,9.40
2015,02,16,16,47,9.50
2015,02,16,16,48,9.50
2015,02,16,16,49,9.50
2015,02,16,16,50,9.50
2015,02,16,16,51,9.50
2015,02,16,16,52,9.50
2015,02,16,16,53,9.50
2015,02,16,16,54,9.50
2015,02,16,16,55,9.50
2015,02,16,16,56,9.50
2015,02,16,16,57,9.40
2015,02,16,16,58,9.40
2015,02,16,16,59,9.40
2015,02,16,17,00,9.40
2015,02,16,17,01,9.40
2015,02,16,17,02,9.40
2015,02,16,17,03,9.40
2015,02,16,17,04,9.30
2015,02,16,17,05,9.30
2015,02,16,17,06,9.30
2015,02,16,17,07,9.30
2015,02,16,17,08,9.20
2015,02,16,17,09,9.20
2015,02,16,17,10,9.20
2015,02,16,17,11,9.10
2015,02,16,17,12,9.10
2015,02,16,17,13,9.00
2015,02,16,17,14,8.90
2015,02,16,17,15,8.80
2015,02,16,17,16,8.80
2015,02,16,17,17,8.70
2015,02,16,17,18,8.60
2015,02,16,17,19,8.50
2015,02,16,17,20,8.40
2015,02,16,17,21,8.30
2015,02,16,17,22,8.30
2015,02,16,17,23,8.20
2015,02,16,17,24,8.20
2015,02,16,17,25,8.10
2015,02,16,17,26,8.10
2015,02,16,17,27,8.00
2015,02,16,17,28,7.90
2015,02,16,17,29,7.90
2015,02,16,17,30,7.80
2015,02,16,17,31,7.70
2015,02,16,17,32,7.70
2015,02,16,17,33,7.60
2015,02,16,17,34,7.60
2015,02,16,17,35,7.50
2015,02,16,17,36,7.40
2015,02,16,17,37,7.40
2015,02,16,17,38,7.40
2015,02,16,17,39,7.30
2015,02,16,17,40,7.30
2015,02,16,17,41,7.20
2015,02,16,17,42,7.20
2015,02,16,17,43,7.20
2015,02,16,17,44,7.20
2015,02,16,17,45,7.10
2015,02,16,17,46,7.10
2015,02,16,17,47,7.00
2015,02,16,17,48,7.00
2015,02,16,17,49,6.90
2015,02,16,17,50,6.90
2015,02,16,17,51,6.90
2015,02,16,17,52,6.80
2015,02,16,17,53,6.80
2015,02,16,17,54,6.80
2015,02,16,17,55,6.70